Location: La Brionne
(46.1728°N, 1.7849°E)
Time: 06:48:18
(UTC+00:00)

COSMOS 2428 - Pass Details

Date: 16 June 2021
Orbit: 845 x 858 km, 70.9° (Epoch: 02 August)

Event Time Altitude Azimuth Distance (km) Brightness Sun altitude
Exits shadow 22:01:02 24° 169° (SSE) 1,716 3.7 -15.9°
Maximum altitude 22:04:12 46° 108° (ESE) 1,134 3.1 -16.1°
Drops below altitude 10° 22:09:39 10° 37° (NE) 2,501 5.5 -16.6°
Sets 22:12:12 0° 32° (NNE) 3,442 6.4 -16.7°
